This demonstration page uses our WeatherBlox Daily Observations layout. Learn more.

Hourly Observations for March 11, 2016

Temp ( °F °C ) Dew Point ( °F °C ) Humidity (%) Winds ( mph kmh ) Pressure ( in mb ) Visibility ( mi km ) Precip ( " mm )
12:15 am 00:15 Clear 43 6.3 27 -2.6 53 53 S 6 9 30.18 1022 10 16.0934 0 0
12:35 am 00:35 Clear 42 5.8 27 -2.8 54 54 S 7 11 30.18 1022 10 16.0934 0 0
12:55 am 00:55 Clear 42 5.8 28 -2.5 56 56 S 7 11 30.18 1022 10 16.0934 0 0
1:15 am 01:15 Clear 43 6.2 28 -2.2 55 55 S 6 9 30.18 1022 10 16.0934 0 0
1:35 am 01:35 Clear 44 6.7 28 -2.1 54 54 S 5 7 30.18 1022 10 16.0934 0 0
1:55 am 01:55 Clear 44 6.9 28 -2 53 53 S 7 11 30.18 1022 10 16.0934 0 0
2:15 am 02:15 Clear 45 7.2 28 -2.2 52 52 S 8 13 30.15 1021 10 16.0934 0 0
2:35 am 02:35 Clear 45 7.3 28 -2.2 51 51 SSW 8 13 30.15 1021 10 16.0934 0 0
2:55 am 02:55 Clear 44 6.9 28 -2.2 53 53 SSW 8 13 30.18 1022 10 16.0934 0 0
3:15 am 03:15 Clear 45 7 28 -2.1 53 53 SSW 8 13 30.18 1022 10 16.0934 0 0
3:35 am 03:35 Clear 43 6.2 28 -2.1 56 56 SSW 6 9 30.18 1022 10 16.0934 0 0
3:55 am 03:55 Clear 41 5 28 -2.3 60 60 SW 3 6 30.18 1022 10 16.0934 0 0
4:15 am 04:15 Clear 40 4.6 27 -2.6 60 60 SSW 7 11 30.18 1022 10 16.0934 0 0
4:35 am 04:35 Clear 41 5.1 27 -2.6 58 58 SSW 7 11 30.18 1022 10 16.0934 0 0
4:55 am 04:55 Clear 40 4.7 27 -2.7 59 59 S 9 15 30.18 1022 10 16.0934 0 0
5:15 am 05:15 Clear 41 4.9 28 -2.5 59 59 SSW 9 15 30.18 1022 10 16.0934 0 0
5:35 am 05:35 Clear 40 4.4 27 -2.8 60 60 SSW 6 9 30.21 1023 10 16.0934 0 0
5:55 am 05:55 Clear 40 4.6 27 -2.8 59 59 SSW 8 13 30.21 1023 10 16.0934 0 0
6:15 am 06:15 Clear 40 4.4 27 -2.8 60 60 SSW 7 11 30.21 1023 10 16.0934 0 0
6:35 am 06:35 Clear 39 4 27 -2.9 61 61 SSW 8 13 30.24 1024 10 16.0934 0 0
6:55 am 06:55 Sunny 38 3.6 27 -2.7 64 64 SSW 7 11 30.21 1023 10 16.0934 0 0
7:15 am 07:15 Sunny 38 3.1 27 -2.8 66 66 S 7 11 30.21 1023 10 16.0934 0 0
7:35 am 07:35 Sunny 38 3.2 28 -2.4 67 67 S 6 9 30.21 1023 10 16.0934 0 0
7:55 am 07:55 Sunny 41 5 29 -1.6 63 63 SSW 6 9 30.18 1022 10 16.0934 0 0
8:15 am 08:15 Sunny 44 6.6 30 -0.9 59 59 SSW 7 11 30.18 1022 10 16.0934 0 0
8:35 am 08:35 Sunny 48 8.7 32 -0.2 54 54 SSW 9 15 30.18 1022 10 16.0934 0 0
8:55 am 08:55 Sunny 50 10 32 -0.1 50 50 SW 10 17 30.18 1022 10 16.0934 0 0
9:15 am 09:15 Sunny 52 10.9 32 0.1 48 48 SW 9 15 30.15 1021 10 16.0934 0 0
9:35 am 09:35 Sunny 55 12.6 32 0.2 43 43 SW 10 17 30.15 1021 10 16.0934 0 0
9:55 am 09:55 Sunny 57 13.7 32 0.2 40 40 SW 14 22 30.15 1021 10 16.0934 0 0
10:15 am 10:15 Sunny 58 14.7 32 0.1 37 37 SW 15 24 30.12 1020 10 16.0934 0 0
10:35 am 10:35 Sunny 61 16.2 32 0.1 34 34 SW 17 28 30.12 1020 10 16.0934 0 0
10:55 am 10:55 Sunny 63 17.4 32 0.2 31 31 SSW 17 28 30.06 1018 10 16.0934 0 0
11:15 am 11:15 Sunny 64 18 33 0.3 30 30 SSW 16 26 30.06 1018 10 16.0934 0 0
11:35 am 11:35 Sunny 66 18.8 32 0.1 29 29 SW 16 26 30.06 1018 10 16.0934 0 0
11:55 am 11:55 Sunny 67 19.5 32 0 27 27 SW 21 33 30.06 1018 10 16.0934 0 0
12:15 pm 12:15 Sunny 68 19.9 32 0 26 26 SW 16 26 30.06 1018 10 16.0934 0 0
12:35 pm 12:35 Sunny 68 20.1 32 -0.1 26 26 SSW 17 28 30.06 1018 10 16.0934 0 0
12:55 pm 12:55 Sunny 69 20.6 31 -0.3 25 25 SSW 18 30 30.06 1018 10 16.0934 0 0
1:15 pm 13:15 Sunny 68 20.2 32 -0.2 26 26 S 21 33 30.06 1018 10 16.0934 0 0
1:35 pm 13:35 Sunny 69 20.6 31 -0.6 24 24 SSW 16 26 30.06 1018 10 16.0934 0 0
1:55 pm 13:55 Sunny 70 20.9 31 -0.8 23 23 S 22 35 30.03 1017 10 16.0934 0 0
2:15 pm 14:15 Sunny 69 20.8 31 -0.8 24 24 SSW 15 24 30.03 1017 10 16.0934 0 0
2:35 pm 14:35 Sunny 70 20.9 29 -1.5 22 22 S 16 26 30.03 1017 10 16.0934 0 0
2:55 pm 14:55 Sunny 70 21.1 30 -1.3 22 22 S 14 22 30 1016 10 16.0934 0 0
3:15 pm 15:15 Sunny 70 20.9 28 -2.1 21 21 S 17 28 30 1016 10 16.0934 0 0
3:35 pm 15:35 Sunny 70 21 28 -2.4 21 21 S 21 33 30 1016 10 16.0934 0 0
3:55 pm 15:55 Sunny 69 20.6 28 -2.3 21 21 S 16 26 29.97 1015 10 16.0934 0 0
4:15 pm 16:15 Sunny 69 20.5 28 -2.3 22 22 S 14 22 29.97 1015 10 16.0934 0 0
4:35 pm 16:35 Sunny 69 20.5 28 -2.4 21 21 S 16 26 29.97 1015 10 16.0934 0 0
4:55 pm 16:55 Sunny 69 20.3 26 -3.4 20 20 S 12 19 29.97 1015 10 16.0934 0 0
5:15 pm 17:15 Sunny 68 20 26 -3.4 20 20 S 17 28 30 1016 10 16.0934 0 0
5:35 pm 17:35 Sunny 67 19.5 26 -3.5 21 21 S 15 24 30 1016 10 16.0934 0 0
5:55 pm 17:55 Sunny 66 18.9 26 -3.4 22 22 S 14 22 30 1016 10 16.0934 0 0
6:15 pm 18:15 Sunny 64 17.8 27 -3 24 24 SSE 12 19 30 1016 10 16.0934 0 0
6:35 pm 18:35 Sunny 61 16 27 -2.7 28 28 SSE 8 13 30.03 1017 10 16.0934 0 0
6:55 pm 18:55 Clear 57 13.8 27 -2.8 32 32 SSE 9 15 30.03 1017 10 16.0934 0 0
7:15 pm 19:15 Clear 54 12.3 26 -3.1 34 34 SSE 8 13 30.09 1019 10 16.0934 0 0
7:35 pm 19:35 Clear 53 11.5 26 -3.3 36 36 SSE 9 15 30.06 1018 10 16.0934 0 0
7:55 pm 19:55 Clear 52 11.2 27 -2.6 38 38 SSE 9 15 30.09 1019 10 16.0934 0 0
8:15 pm 20:15 Clear 53 11.5 28 -2.2 39 39 S 7 11 30.09 1019 10 16.0934 0 0
8:35 pm 20:35 Clear 50 9.9 28 -2.2 43 43 S 6 9 30.06 1018 10 16.0934 0 0
8:55 pm 20:55 Clear 47 8.6 28 -2.3 47 47 SSE 6 9 30.09 1019 10 16.0934 0 0
9:15 pm 21:15 Clear 44 6.4 27 -2.7 53 53 SSE 3 6 30.12 1020 10 16.0934 0 0
9:35 pm 21:35 Clear 43 6 28 -2.5 55 55 SSE 5 7 30.15 1021 10 16.0934 0 0
9:55 pm 21:55 Clear 44 6.4 28 -2.1 55 55 SSE 7 11 30.15 1021 10 16.0934 0 0
10:15 pm 22:15 Clear 43 6.3 28 -2.1 55 55 SSE 6 9 30.15 1021 10 16.0934 0 0
10:35 pm 22:35 Clear 43 6.1 29 -1.7 58 58 SSE 8 13 30.12 1020 10 16.0934 0 0
10:55 pm 22:55 Clear 44 6.6 28 -2 55 55 SSE 9 15 30.09 1019 10 16.0934 0 0
11:15 pm 23:15 Clear 44 6.9 29 -1.8 54 54 SSE 9 15 30.09 1019 10 16.0934 0 0
11:35 pm 23:35 Clear 44 6.7 29 -1.5 56 56 SSE 10 17 30.09 1019 10 16.0934 0 0
11:55 pm 23:55 Clear 44 6.5 29 -1.6 57 57 SSE 10 17 30.09 1019 10 16.0934 0 0

Powered by AerisWeather